Showing default

FLOCK 4G 12, 62625

Orbit data source: Space-Track

FLOCK 4G 12, 62625 is a payload satellite owned by Planet (US) in SSO that was launched on Tue, 14 Jan 2025 UTC via an FALCON 9 launch vehicle from the Air Force Western Test Range (AFWTR). Payload-class satellites include a variety of spacecraft equipped with specific instruments for various scientific and technological missions. These include communications satellites like Starlink; space stations such as the ISS; scientific satellites like the Hubble; Earth observation satellites from companies like Planet Labs, Umbra, and HawkEye 360; GPS; miniature CubeSats for education and research; and military/defense satellites.

Loading next visibility...
Identifier
62625, 2025-009S
Orbit
SSO
Country
Flag of USUS
Related business
Manufacturer
Planet
Mission
Operational Commercial Imaging
Bus & Motor
CUBESAT 3U, Unknown motor
Mass
5.7 kg wet, 5.7 kg dry
Launch date (UTC)
2025-01-14 (1 year ago)
Launch vehicle
FALCON 9
Launch site
Air Force Western Test Range (AFWTR)
Object type
Payload
Rocket body
Debris
Shape & HBR
Box + 2 Pan, 1.0 m
Radar Cross Section
0.072 m², Medium (>0.1 m² and < 1m²)

Expand to show TLE details & history
Last TLE update: 14 hours ago

TLE from 14 hours ago
0 FLOCK 4G 12
1 62625U 25009S   26035.22641406  .00013696  00000-0  53059-3 0  9998
2 62625  97.4123 117.9560 0005374  72.0557 288.1267 15.26263177 58606
Epoch: 2026-02-04T05:26Z
TLE epoch observation values (Epoch: 2026-02-04T05:26:02.174Z)
Latitude
-0.00004°
Longitude
-97.94909°
Altitude
488.947 km
Speed
7.621 km/s
True Right ascension
07h 51m 49s
True Declination
0° 00' 00"
Sunlit
Object was in full shadow at epoch
Visualization orbit readout
Latitude
Unknown
Longitude
Unknown
Altitude
Unknown
Speed
Unknown
Apparent Right ascension
Unknown
Apparent Declination
Unknown
Sunlit
N/A
Visualization observer readout
Local Sidereal Time
21:40:19
Azimuth
Unknown
Elevation
Unknown
Doppler factor
Unknown
Orbital elements
Apogee altitude
487.64 km
Perigee altitude
480.265 km
Semi-major axis
6,862.09 km
Eccentricity
0.00054
Inclination
97.4123°
RAAN
117.956°
Arg. of periapsis
72.0557°
True anomaly
288.06816°
Mean anomaly
288.1267°
Eccentric anomaly
288.09743°
Mean motion
3.8182 °/min
Orbital period
94.29 mins
BSTAR
0.00053059
Loading maneuver chart data...
Computing Atmospheric mass density...
Loading historical data...
Loading historical data...
Loading historical data...
Loading historical data...
Loading historical data...
Loading historical data...
Loading historical data...

Documentation

Showing up to 5 results
|